• Join FlightAware (Why Join?)
  • Login
  • US Flag GB Flag 
00:25 EST


 

Airport Tracker/Info


-or-


 

Live Flight TrackerFlight Track Log ✈ UPS1121 ✈ 01-May-2013 ✈ KBDL - KPHL

Flight Track Log - Related Links

Times and Time Zones

All times are in EDT time to prevent confusion due to time zone crossing. See the UPS1121 flight status page for this flight to view local times or setup timezone preferences in your user account.

Time Position Orientation Groundspeed Altitude Reporting Facility
EDT Latitude Longitude Course Direction KTS MPH feet Rate Location/Type
21:55 41.9311 -72.7025 228° Southwest 157 181 1,000  Level Boston Center
21:56 41.9122 -72.7303 228° Southwest 169 194 2,700 2,460 Climbing Boston Center
21:57 41.8644 -72.7217 172° South 228 262 5,100 2,400 Climbing Boston Center
22:03 41.3180 -72.5810 172° South 435 501 20,000 2,100 Climbing FlightAware
22:04 41.2280 -72.6310 203° Southwest 435 501 20,000  Level FlightAware
22:05 41.1390 -72.6820 203° Southwest 435 501 20,000  Level FlightAware
22:05 41.0640 -72.7240 203° Southwest 440 506 20,000  Level FlightAware
22:06 40.9760 -72.7730 203° Southwest 440 506 20,000  Level FlightAware
22:06 40.9334 -72.7982 204° Southwest 439 505 20,000  Level FlightAware ADS-B
22:07 40.8797 -72.8355 208° Southwest 437 503 20,000  Level FlightAware ADS-B
22:07 40.8241 -72.8767 209° Southwest 436 502 20,000  Level FlightAware ADS-B
22:08 40.7710 -72.9158 209° Southwest 436 502 20,000  Level FlightAware ADS-B
22:09 40.7104 -72.9602 209° Southwest 436 502 20,000  Level FlightAware ADS-B
22:09 40.6537 -73.0018 209° Southwest 436 502 20,000  Level FlightAware ADS-B
22:10 40.6040 -73.0380 209° Southwest 436 502 20,000  Level FlightAware
22:10 40.5966 -73.0435 209° Southwest 436 502 20,000  Level FlightAware ADS-B
22:10 40.5391 -73.0854 209° Southwest 436 502 20,000  Level FlightAware ADS-B
22:11 40.4842 -73.1256 209° Southwest 436 502 20,000  Level FlightAware ADS-B
22:11 40.4288 -73.1659 209° Southwest 436 502 20,000  Level FlightAware ADS-B
22:12 40.3718 -73.2072 209° Southwest 436 502 20,000  Level FlightAware ADS-B
22:12 40.3174 -73.2466 209° Southwest 436 502 20,000  Level FlightAware ADS-B
22:13 40.2622 -73.2863 209° Southwest 435 501 20,000  Level FlightAware ADS-B
22:13 40.2077 -73.3254 209° Southwest 437 503 20,000  Level FlightAware ADS-B
22:14 40.1513 -73.3658 209° Southwest 437 503 20,000  Level FlightAware ADS-B
22:14 40.0935 -73.4072 209° Southwest 437 503 20,000  Level FlightAware ADS-B
22:15 40.0382 -73.4468 209° Southwest 436 502 20,000  Level FlightAware ADS-B
22:15 39.9826 -73.4864 209° Southwest 435 501 20,000  Level FlightAware ADS-B
22:16 39.9318 -73.5233 209° Southwest 436 502 20,000  Level FlightAware ADS-B
22:16 39.9056 -73.5468 215° Southwest 434 499 20,000  Level FlightAware ADS-B
22:16 39.8769 -73.5785 220° Southwest 432 497 20,000  Level FlightAware ADS-B
22:17 39.8531 -73.6113 227° Southwest 430 495 20,000  Level FlightAware ADS-B
22:17 39.8115 -73.6786 231° Southwest 430 495 20,000  Level FlightAware ADS-B
22:18 39.7711 -73.7439 231° Southwest 430 495 20,000  Level FlightAware ADS-B
22:18 39.7322 -73.8066 231° Southwest 430 495 20,000 -480 Level FlightAware ADS-B
22:19 39.6927 -73.8703 231° Southwest 427 491 19,500 -1,620 Descending FlightAware ADS-B
22:19 39.6541 -73.9323 231° Southwest 419 482 18,300 -2,460 Descending FlightAware ADS-B
22:20 39.6173 -73.9911 231° Southwest 412 474 17,000 -2,880 Descending FlightAware ADS-B
22:20 39.5808 -74.0494 231° Southwest 412 474 15,400 -2,880 Descending FlightAware ADS-B
22:21 39.5455 -74.1082 232° Southwest 404 465 14,100 -2,400 Descending FlightAware ADS-B
22:21 39.5365 -74.1303 242° Southwest 402 463 13,800 -900 Descending FlightAware ADS-B
22:22 39.5258 -74.2017 259° West 397 457 13,500 -300 Descending FlightAware ADS-B
22:22 39.5269 -74.2751 271° West 396 456 13,500 -900 Level FlightAware ADS-B
22:23 39.5283 -74.3452 272° West 382 440 12,600 -1,500 Descending FlightAware ADS-B
22:23 39.5295 -74.4143 271° West 379 436 12,000 -1,320 Descending FlightAware ADS-B
22:24 39.5314 -74.5251 271° West 368 423 10,900 -1,200 Descending FlightAware ADS-B
22:24 39.5320 -74.5853 271° West 303 349 10,400 -1,320 Descending FlightAware ADS-B
22:25 39.5322 -74.6129 271° West 292 336 9,900 -2,340 Descending FlightAware ADS-B
22:25 39.5326 -74.6393 271° West 289 333 9,200 -2,580 Descending FlightAware ADS-B
22:25 39.5330 -74.6593 271° West 295 339 8,800 -1,380 Descending FlightAware ADS-B
22:25 39.5333 -74.6860 271° West 292 336 8,600 -600 Descending FlightAware ADS-B
22:26 39.5337 -74.7124 271° West 291 335 8,500 -240 Descending FlightAware ADS-B
22:26 39.5341 -74.7395 271° West 291 335 8,500  Level FlightAware ADS-B
22:26 39.5345 -74.7664 271° West 292 336 8,500  Level FlightAware ADS-B
22:26 39.5351 -74.7930 272° West 292 336 8,500  Level FlightAware ADS-B
22:27 39.5356 -74.8199 271° West 293 337 8,500  Level FlightAware ADS-B
22:27 39.5360 -74.8462 271° West 293 337 8,500  Level FlightAware ADS-B
22:27 39.5363 -74.8718 271° West 292 336 8,500  Level FlightAware ADS-B
22:27 39.5365 -74.8844 271° West 293 337 8,500  Level FlightAware ADS-B
22:27 39.5367 -74.8897 273° West 293 337 8,500  Level FlightAware ADS-B
22:27 39.5374 -74.8973 277° West 291 335 8,500 -720 Level FlightAware ADS-B
22:28 39.5385 -74.9041 282° West 289 333 8,400 -1,500 Descending FlightAware ADS-B
22:28 39.5405 -74.9116 289° West 287 330 8,300 -1,440 Descending FlightAware ADS-B
22:28 39.5452 -74.9246 295° West 285 328 8,100 -1,500 Descending FlightAware ADS-B
22:28 39.5548 -74.9478 298° West 286 329 7,700 -1,440 Descending FlightAware ADS-B
22:28 39.5641 -74.9708 298° West 284 327 7,400 -1,380 Descending FlightAware ADS-B
22:29 39.5736 -74.9939 298° West 283 326 7,000 -1,380 Descending FlightAware ADS-B
22:29 39.5829 -75.0166 298° West 281 323 6,700 -1,260 Descending FlightAware ADS-B
22:29 39.5914 -75.0370 298° West 280 322 6,400 -1,440 Descending FlightAware ADS-B
22:29 39.6013 -75.0606 299° West 279 321 6,000 -1,560 Descending FlightAware ADS-B
22:30 39.6112 -75.0839 299° West 280 322 5,600 -1,560 Descending FlightAware ADS-B
22:30 39.6211 -75.1075 299° West 280 322 5,200 -1,320 Descending FlightAware ADS-B
22:30 39.6309 -75.1309 299° West 281 323 4,900 -1,380 Descending FlightAware ADS-B
22:30 39.6402 -75.1531 299° West 281 323 4,500 -1,440 Descending FlightAware ADS-B
22:31 39.6494 -75.1758 298° West 280 322 4,200 -1,320 Descending FlightAware ADS-B
22:31 39.6621 -75.2073 298° West 280 322 3,700 -1,320 Descending FlightAware ADS-B
22:31 39.6714 -75.2307 297° West 276 318 3,400 -1,020 Descending FlightAware ADS-B
22:31 39.6806 -75.2541 297° West 273 314 3,200 -1,020 Descending FlightAware ADS-B
22:32 39.6890 -75.2761 296° West 272 313 2,900 -1,080 Descending FlightAware ADS-B
22:32 39.6963 -75.2950 297° West 268 308 2,700 -840 Descending FlightAware ADS-B
22:32 39.7018 -75.3076 300° West 262 302 2,600 -360 Descending FlightAware ADS-B
22:32 39.7077 -75.3193 303° West 255 293 2,600 -360 Level FlightAware ADS-B
22:32 39.7144 -75.3305 308° West 249 287 2,500 -480 Descending FlightAware ADS-B
22:32 39.7184 -75.3362 312° West 244 281 2,500 -540 Level FlightAware ADS-B
22:33 39.7240 -75.3431 317° Northwest 238 274 2,400 -540 Descending FlightAware ADS-B
22:33 39.7281 -75.3475 320° Northwest 235 270 2,400  Level FlightAware ADS-B
22:33 39.7339 -75.3535 321° Northwest 230 265 2,400 -300 Level FlightAware ADS-B
22:33 39.7469 -75.3652 325° Northwest 219 252 2,300 -600 Descending FlightAware ADS-B
22:33 39.7521 -75.3694 328° Northwest 214 246 2,200 -360 Descending FlightAware ADS-B
22:33 39.7628 -75.3773 330° Northwest 206 237 2,200 -360 Level FlightAware ADS-B
22:33 39.7663 -75.3796 333° Northwest 203 234 2,100 -420 Descending FlightAware ADS-B
22:34 39.7754 -75.3846 337° Northwest 195 224 2,100 -300 Level FlightAware ADS-B
22:34 39.7845 -75.3890 340° North 190 219 2,000 -660 Descending FlightAware ADS-B
22:34 39.7915 -75.3923 340° North 186 214 1,900 -360 Descending FlightAware ADS-B
22:34 39.7986 -75.3955 341° North 181 208 1,900 -420 Level FlightAware ADS-B
22:34 39.8039 -75.3977 342° North 178 205 1,800 -840 Descending FlightAware ADS-B
22:34 39.8111 -75.4000 346° North 174 200 1,700 -360 Descending FlightAware ADS-B
22:34 39.8170 -75.4011 352° North 167 192 1,700  Level FlightAware ADS-B